ARIANE 42P DEB, 44509

Orbit data source: Space-Track

ARIANE 42P DEB, 44509 is space debris in LEO originally from a launch on Mon, 10 Aug 1992 UTC launched from the French Guiana (FRGUI). Debris objects in space refer to the collection of defunct objects orbiting the Earth. Examples of debris include non-operational satellites, rocket bodies, and fragments generated from explosions, collisions, or faulty payload assembly.

Loading next visibility...
Identifier
44509, 1992-052G
Orbit
LEO
Country
Flag of FRFR
Related business
Manufacturer
ArianeGroup
Mission
Spacecraft
Bus & Motor
Unknown
Mass
Unknown
Launch date (UTC)
1992-08-10 (33 years ago)
Launch vehicle
Unknown
Launch site
French Guiana (FRGUI)
Object type
Payload
Rocket body
Debris
Shape & HBR
Unknown shape, 0.1 m
Radar Cross Section
Small (<0.1 m²)

Expand to show TLE details & history
Last TLE update: 12 hours ago

TLE from 12 hours ago
0 ARIANE 42P DEB
1 44509U 92052G   26036.84932043  .00002325  00000-0  96556-2 0  9995
2 44509  66.0847 200.5199 0073198 345.1966  14.6909 12.85142652303071
Epoch: 2026-02-05T20:23Z
TLE epoch observation values (Epoch: 2026-02-05T20:23:01.285Z)
Latitude
0.00007°
Longitude
118.76893°
Altitude
1,268.289 km
Speed
7.247 km/s
True Right ascension
13h 22m 04s
True Declination
0° 00' 00"
Sunlit
Object was in daylight at epoch
Visualization orbit readout
Latitude
Unknown
Longitude
Unknown
Altitude
Unknown
Speed
Unknown
Apparent Right ascension
Unknown
Apparent Declination
Unknown
Sunlit
N/A
Visualization observer readout
Local Sidereal Time
10:29:39
Azimuth
Unknown
Elevation
Unknown
Doppler factor
Unknown
Orbital elements
Apogee altitude
1,375.762 km
Perigee altitude
1,263.073 km
Semi-major axis
7,697.554 km
Eccentricity
0.00732
Inclination
66.0847°
RAAN
200.5199°
Arg. of periapsis
345.1966°
True anomaly
14.90552°
Mean anomaly
14.6909°
Eccentric anomaly
14.79802°
Mean motion
3.21376 °/min
Orbital period
112.02 mins
BSTAR
0.0096556
Loading maneuver chart data...
Computing Atmospheric mass density...
Loading historical data...
Loading historical data...
Loading historical data...
Loading historical data...
Loading historical data...
Loading historical data...
Loading historical data...

Documentation

Showing up to 5 results
|